TimeMST,TemperatureF,Dew PointF,Humidity,Sea Level PressureIn,VisibilityMPH,Wind Direction,Wind SpeedMPH,Gust SpeedMPH,PrecipitationIn,Events,Conditions,WindDirDegrees,DateUTC
12:53 AM,30.0,21.9,72,30.22,10.0,Variable,4.6,-,N/A,,Clear,0,2012-11-05 07:53:00
1:53 AM,28.0,21.0,75,30.24,10.0,Calm,Calm,-,N/A,,Clear,0,2012-11-05 08:53:00
2:53 AM,30.9,21.9,69,30.22,10.0,Calm,Calm,-,N/A,,Clear,0,2012-11-05 09:53:00
3:53 AM,30.9,23.0,72,30.22,10.0,Calm,Calm,-,N/A,,Clear,0,2012-11-05 10:53:00
4:53 AM,33.1,24.1,70,30.21,10.0,WSW,3.5,-,N/A,,Partly Cloudy,250,2012-11-05 11:53:00
5:53 AM,35.1,25.0,67,30.19,10.0,NW,3.5,-,N/A,,Overcast,310,2012-11-05 12:53:00
6:53 AM,37.0,28.9,73,30.19,10.0,West,3.5,-,N/A,,Overcast,280,2012-11-05 13:53:00
7:53 AM,41.0,30.0,65,30.15,10.0,Calm,Calm,-,N/A,,Scattered Clouds,0,2012-11-05 14:53:00
8:53 AM,45.0,30.9,58,30.13,10.0,West,6.9,-,N/A,,Scattered Clouds,270,2012-11-05 15:53:00
9:53 AM,46.9,33.1,59,30.11,10.0,West,8.1,-,N/A,,Clear,260,2012-11-05 16:53:00
10:53 AM,50.0,34.0,54,30.07,10.0,WNW,13.8,19.6,N/A,,Clear,290,2012-11-05 17:53:00
11:53 AM,51.1,34.0,52,30.04,10.0,WNW,11.5,-,N/A,,Clear,290,2012-11-05 18:53:00
12:53 PM,52.0,33.1,49,30.01,10.0,West,12.7,-,N/A,,Clear,280,2012-11-05 19:53:00
1:53 PM,53.1,33.1,47,30.02,10.0,WNW,11.5,21.9,N/A,,Clear,290,2012-11-05 20:53:00
2:53 PM,53.1,33.1,47,30.01,10.0,West,9.2,-,N/A,,Clear,280,2012-11-05 21:53:00
3:53 PM,52.0,33.1,49,30.01,10.0,West,6.9,-,N/A,,Clear,280,2012-11-05 22:53:00
4:53 PM,51.1,32.0,48,30.01,10.0,Calm,Calm,-,N/A,,Clear,0,2012-11-05 23:53:00
5:53 PM,50.0,33.1,52,30.03,10.0,WNW,6.9,-,N/A,,Clear,300,2012-11-06 00:53:00
6:53 PM,48.0,32.0,54,30.02,10.0,West,6.9,-,N/A,,Clear,280,2012-11-06 01:53:00
7:53 PM,48.9,33.1,54,29.99,10.0,WNW,9.2,20.7,N/A,,Clear,290,2012-11-06 02:53:00
8:53 PM,50.0,32.0,50,30.00,10.0,Variable,4.6,-,N/A,,Clear,0,2012-11-06 03:53:00
9:53 PM,46.9,36.0,66,30.03,10.0,North,8.1,18.4,N/A,,Clear,350,2012-11-06 04:53:00
10:53 PM,44.1,35.1,71,30.04,10.0,Variable,6.9,-,N/A,,Clear,0,2012-11-06 05:53:00
11:53 PM,42.1,32.0,67,30.05,10.0,North,3.5,-,N/A,,Clear,350,2012-11-06 06:53:00